This is the latest recevied weather packets stored in our database for station/object UR7D-12. If no packets are shown the sender has not sent any weather packets the latest 1 day(s).
| Time | Temp. | Humidity | Pressure | Rain* | Wind** | Luminosity | Snow |
|---|---|---|---|---|---|---|---|
| 1836274504 | 13.33° C | 91% | 1001.5 hPa | 0 mm | 3.13 m/s, 94° | - | - |
| 1836274355 | 13.33° C | 92% | 1001.5 hPa | 0 mm | 3.58 m/s, 98° | - | - |
| 1836274206 | 13.33° C | 91% | 1001.4 hPa | 0 mm | 3.13 m/s, 85° | - | - |
| 1836273904 | 13.33° C | 91% | 1001.5 hPa | 0 mm | 3.58 m/s, 90° | - | - |
| 1778028730 | 14.44° C | 59% | 985.6 hPa | 0 mm | 4.02 m/s, 98° | - | - |
| 1778028429 | 14.44° C | 58% | 985.6 hPa | 0 mm | 4.02 m/s, 105° | - | - |
| 1778028129 | 15° C | 57% | 985.7 hPa | 0 mm | 4.02 m/s, 98° | - | - |
| 1778027828 | 15° C | 57% | 985.5 hPa | 0 mm | 4.02 m/s, 107° | - | - |
| 1778027528 | 15° C | 57% | 985.6 hPa | 0 mm | 3.58 m/s, 103° | - | - |
| 1778027228 | 15° C | 58% | 985.5 hPa | 0 mm | 3.58 m/s, 94° | - | - |
| 1778026928 | 15° C | 57% | 985.6 hPa | 0 mm | 3.58 m/s, 84° | - | - |
| 1778026627 | 15° C | 57% | 985.6 hPa | 0 mm | 3.58 m/s, 102° | - | - |
| 1778026327 | 15° C | 58% | 985.6 hPa | 0 mm | 3.58 m/s, 110° | - | - |
| 1778026027 | 15° C | 58% | 985.6 hPa | 0 mm | 3.58 m/s, 110° | - | - |
| 1778025726 | 15° C | 58% | 985.6 hPa | 0 mm | 3.58 m/s, 115° | - | - |
| 1778025426 | 15° C | 58% | 985.6 hPa | 0 mm | 3.13 m/s, 105° | - | - |
| 1778025126 | 14.44° C | 59% | 985.6 hPa | 0 mm | 2.68 m/s, 107° | - | - |
| 1778024825 | 14.44° C | 60% | 985.6 hPa | 0 mm | 2.24 m/s, 134° | - | - |
| 1778024525 | 14.44° C | 59% | 985.7 hPa | 0 mm | 2.24 m/s, 137° | - | - |
| 1778024225 | 14.44° C | 59% | 985.7 hPa | 0 mm | 2.24 m/s, 127° | - | - |
| 1778023925 | 15° C | 58% | 985.8 hPa | 0 mm | 2.24 m/s, 115° | - | - |
| 1778023624 | 15° C | 58% | 985.8 hPa | 0 mm | 2.68 m/s, 105° | - | - |
| 1778023324 | 15° C | 58% | 985.7 hPa | 0 mm | 3.13 m/s, 105° | - | - |
| 1778023024 | 15.56° C | 57% | 985.7 hPa | 0 mm | 3.13 m/s, 105° | - | - |
| 1778022723 | 15.56° C | 57% | 985.9 hPa | 0 mm | 3.13 m/s, 113° | - | - |
* Rain latest hour (hover to see other rain measurements)
** Current wind speed in m/s (hover to see current wind gust speed)